Hourly Data Report for October 26, 2015

All times are specified in Local Standard Time (LST). Add 1 hour to adjust for Daylight Saving Time where and when it is observed.

PANGNIRTUNG
NUNAVUT

66°08'36.300" N
65°42'40.500" W
22.60 m
2403049
71826
WXP

Download Data

Hourly Data (October 2015)
Hourly Data Report for October 26, 2015
Temp Definition
°C
Dew Point Temp Definition
°C
Rel Hum Definition
%
Wind Dir Definition
10's deg

Wind Spd Definition
km/h
Visibility Definition
km
Stn Press Definition
kPa
Hmdx Definition


Wind Chill Definition


Weather Definition


TIME
00:00 -9.5 -14.7 65 26 16   98.64   -16 LegendNANA
01:00 -9.3 -14.4 66 29 18   98.68   -17 LegendNANA
02:00 -9.3 -15.0 64 29 19   98.69   -17 LegendNANA
03:00 -9.6 -14.1 70 28 19   98.72   -17 LegendNANA
04:00 -9.9 -14.4 69 32 5   98.76   -13 LegendNANA
05:00 -10.2 -12.7 82 24 9   98.79   -15 LegendNANA
06:00 -9.9 -12.8 80 26 22   98.83   -18 LegendNANA
07:00 -10.1 -13.6 75 31 19   98.86   -18 LegendNANA
08:00 -11.1 -14.5 75 28 10   98.90   -17 LegendNANA
09:00 -11.6 -15.0 76 19 12   98.92   -18 LegendNANA
10:00 -11.8 -15.4 74 20 12   98.95   -18 LegendNANA
11:00 -11.0 -14.8 74 12 3   99.00   -13 LegendNANA
12:00 -11.3 -15.3 72 19 8   99.02   -16 LegendNANA
13:00 -11.4 -15.0 75 30 4   99.03   -14 LegendNANA
14:00 -10.5 -14.2 74 27 7   99.08   -15 LegendNANA
15:00 -10.5 -14.9 71 17 9   99.11   -15 LegendNANA
16:00 -11.4 -15.8 70 17 15   99.15   -18 LegendNANA
17:00 -11.6 -15.5 73 15 14   99.19   -18 LegendNANA
18:00 -12.2 -16.3 71 18 11   99.18   -18 LegendNANA
19:00 -12.4 -17.5 66 14 18   99.21   -20 LegendNANA
20:00 -11.4 -16.2 68 13 19   99.24   -19 LegendNANA
21:00 -11.6 -16.0 70 14 21   99.21   -20 LegendNANA
22:00 -11.5 -17.1 63 13 15   99.19   -19 LegendNANA
23:00 -11.1 -17.4 59 10 6   99.18   -15 LegendNANA

Notes on Data Quality.

Legend

  • E = Estimated
  • M = Missing
  • NA = Not Available
  • ‡ = Partner data that is not subject to review by the National Climate Archives
Date modified: